Weather in Biratnagar

Nepal     26°27′26″N   87°16′48″E
temp.,
°C
wind,
m/s
gust,
m/s
humid.,
%
clouds,
%
prec.,
mm/h
press.,
hPa
HPBL,
m
19 april, mon
mon1923:45+25e510610 0.0 1007315
02:45+23e511650 0.0 1006320
05:45+22e510640 0.0 1006300
08:45+29e56480 0.0 1008836
11:45+35ssw24250 0.0 10062668
14:45+38w48120 0.0 10013847
17:45+37w61080 0.0 1000529
20:45+30wsw01130 0.0 100311
20 april, tue
tue2023:45+25e34440 0.0 100460
02:45+25e34410 0.0 100352
05:45+24e410390 0.0 1005219
08:45+31e911380 0.0 1007990
11:45+36ese74260 0.0 10062138
14:45+38ene24180 0.0 10033443
17:45+37e45180 0.0 1001209
20:45+30e511323 0.0 1003186
21 april, wed
wed2123:45+28e411395 0.0 1004235
02:45+26ese5124416 0.0 1005281
05:45+27ene7134110 0.0 1006372
08:45+33e1011335 0.0 10081129
11:45+38ese76265 0.0 10062043
14:45+40se442052 0.0 10032795
17:45+39sw23176 0.0 100156
20:45+29nne584047 0.0 1004179
22 april, thu
thu2223:45+28ese334087 0.0 100558
02:45+26nne124093 0.0 100537
05:45+27e3536100 0.0 1006127
08:45+33e5636100 0.0 1008741
11:45+35e5429100 0.0 1006956
14:45+38se2518100 0.0 10032260
17:45+38w5712100 0.0 1001262
20:45+31nw222098 0.0 100313
23 april, fri
fri2323:45+28ene122791 0.0 100422
02:45+25e510462 0.0 1004222
05:45+25e611513 0.0 1006313
08:45+31ese663999 0.0 1008908
11:45+37se232568 0.0 10062107
14:45+40wnw45115 0.0 10023328
17:45+38w46914 0.0 1001144
20:45+31wnw331084 0.0 100329